Location: Unspecified
(0.0000°N, 0.0000°E)
Time: 16:43:00

Envisat - Pass Details

Date: 13 March 2018
Orbit: 764 x 766 km, 98.2° (Epoch: 19 March)

Event Time Altitude Azimuth Distance (km) Brightness Sun altitude
Rises 19:38:10 0° 161° (SSE) 3,230 6.1 -22.2°
Enters shadow 19:38:14 - 161° (SSE) 3,207 6.1 -22.2°
Exits shadow 19:47:03 41° 20° (NNE) 1,095 3.6 -24.4°
Drops below altitude 10° 19:50:28 10° 359° (N) 2,291 5.4 -25.2°
Sets 19:52:47 0° 355° (N) 3,214 6.3 -25.8°
